Afton Municipal Airport, WY

11:29 PM MST on November 19, 2019 (GMT -0700)
Afton Municipal

Weather History for KAFO - September, 2019

Change the Weather History Date:

Friday, September 20, 2019

  Actual Average Record
Temperature  
Mean Temperature 44 °F -  
Max Temperature 46 °F 66 °F 78 °F (2016)
Min Temperature 41 °F 30 °F 28 °F (2017)
Degree Days  
Heating Degree Days 22    
Moisture  
Dew Point 37 °F    
Average Humidity 80    
Maximum Humidity 93    
Minimum Humidity 66    
Precipitation  
Precipitation 0.00 in - - ()
Sea Level Pressure  
Sea Level Pressure 29.98 in    
Wind  
Wind Speed 4 mph ()    
Max Wind Speed 12 mph    
Max Gust Speed -    
Visibility 9.7 miles    
Events Rain , Thunderstorm    
Averages and records for this station are not official NWS values.
T = Trace of Precipitation, MM = Missing Value Source: Averaged Metar Reports

Daily Weather History Graph

Daily Weather History Graph

Search for Another Location

Airport or City:

Astronomy

Sep. 20, 2019 Rise Set
Actual Time 7:08 AM MDT 7:24 PM MDT
Civil Twilight 6:40 AM MDT 7:53 PM MDT
Nautical Twilight 6:07 AM MDT 8:26 PM MDT
Astronomical Twilight 5:33 AM MDT 9:00 PM MDT
Moon 11:09 PM MDT 1:25 PM MDT
Length of Visible Light 13h 12m
Length of Day
12h 16m
Waning Gibbous, 64% of the Moon is Illuminated
Sep 20
Waning Gibbous
Sep 21
Last Quarter
Sep 28
New
Oct 5
First Quarter
Oct 13
Full

Hourly Weather History & Observations

Time (MDT) Temp. Windchill Dew Point Humidity Pressure Visibility Wind Dir Wind Speed Gust Speed Precip Events Conditions
12:15 AM 46.4 °F 43.5 °F 35.6 °F 66% 29.94 in 10.0 mi North 5.8 mph - N/A   Mostly Cloudy
12:35 AM 46.4 °F 43.5 °F 35.6 °F 66% 29.94 in 10.0 mi NE 5.8 mph - N/A   Scattered Clouds
12:55 AM 44.6 °F 40.7 °F 35.6 °F 71% 29.94 in 10.0 mi North 6.9 mph - N/A   Scattered Clouds
1:15 AM 46.4 °F 43.5 °F 35.6 °F 66% 29.94 in 10.0 mi NNE 5.8 mph - N/A   Scattered Clouds
1:35 AM 46.4 °F 45.2 °F 35.6 °F 66% 29.94 in 10.0 mi North 3.5 mph - N/A   Scattered Clouds
1:55 AM 46.4 °F 43.5 °F 35.6 °F 66% 29.94 in 10.0 mi North 5.8 mph - N/A   Mostly Cloudy
2:15 AM 46.4 °F 45.2 °F 35.6 °F 66% 29.95 in 10.0 mi North 3.5 mph - N/A   Overcast
2:35 AM 44.6 °F - 35.6 °F 71% 29.95 in 10.0 mi Calm Calm - N/A   Mostly Cloudy
2:55 AM 44.6 °F 40.2 °F 37.4 °F 76% 29.93 in 10.0 mi NNW 8.1 mph - N/A   Overcast
3:15 AM 44.6 °F 43.1 °F 35.6 °F 71% 29.94 in 10.0 mi NW 3.5 mph - N/A   Overcast
3:35 AM 44.6 °F 40.7 °F 35.6 °F 71% 29.93 in 10.0 mi North 6.9 mph - N/A   Overcast
3:55 AM 44.6 °F 42.2 °F 35.6 °F 71% 29.92 in 10.0 mi North 4.6 mph - N/A   Light Drizzle
4:15 AM 44.6 °F 42.2 °F 37.4 °F 76% 29.91 in 10.0 mi North 4.6 mph - N/A   Overcast
4:35 AM 44.6 °F - 37.4 °F 76% 29.92 in 10.0 mi Calm Calm - N/A   Overcast
4:55 AM 44.6 °F - 35.6 °F 71% 29.91 in 10.0 mi Calm Calm - N/A Rain Light Rain
5:15 AM 42.8 °F - 39.2 °F 87% 29.90 in 10.0 mi Calm Calm - N/A Rain Rain
5:35 AM 42.8 °F 41.1 °F 39.2 °F 87% 29.90 in 10.0 mi South 3.5 mph - N/A   Overcast
5:55 AM 42.8 °F 39.3 °F 37.4 °F 81% 29.90 in 10.0 mi SSE 5.8 mph - N/A   Overcast
6:15 AM 42.8 °F 40.1 °F 37.4 °F 81% 29.89 in 10.0 mi ESE 4.6 mph - N/A Rain Rain
6:35 AM 42.8 °F - 39.2 °F 87% 29.89 in 10.0 mi Calm Calm - N/A   Overcast
6:55 AM 42.8 °F - 39.2 °F 87% 29.87 in 10.0 mi Calm Calm - N/A   Overcast
7:15 AM 41.0 °F 39.0 °F 39.2 °F 93% 29.88 in 10.0 mi WNW 3.5 mph - N/A   Overcast
7:35 AM 42.8 °F - 39.2 °F 87% 29.89 in 10.0 mi Calm Calm - N/A   Overcast
7:55 AM 42.8 °F 39.3 °F 39.2 °F 87% 29.90 in 10.0 mi NE 5.8 mph - N/A   Overcast
8:15 AM 42.8 °F 38.6 °F 37.4 °F 81% 29.91 in 10.0 mi North 6.9 mph - N/A   Mostly Cloudy
8:35 AM 42.8 °F 37.5 °F 37.4 °F 81% 29.92 in 10.0 mi North 9.2 mph - N/A   Overcast
8:55 AM 42.8 °F 36.6 °F 37.4 °F 81% 29.92 in 10.0 mi North 11.5 mph - N/A   Overcast
9:15 AM 42.8 °F 37.0 °F 37.4 °F 81% 29.93 in 10.0 mi North 10.4 mph - N/A   Overcast
9:40 AM 42.8 °F 37.5 °F 35.6 °F 76% 29.93 in 10.0 mi North 9.2 mph - N/A   Overcast
9:55 AM 42.8 °F 38.0 °F 37.4 °F 81% 29.92 in 10.0 mi NNW 8.1 mph - N/A Rain Light Rain
10:15 AM 41.0 °F 39.0 °F 37.4 °F 87% 29.95 in 5.0 mi NW 3.5 mph - N/A Rain , Thunderstorm Rain
10:35 AM 41.0 °F - 37.4 °F 87% 29.96 in 10.0 mi Calm Calm - N/A Rain , Thunderstorm Light Thunderstorms and Rain
10:55 AM 41.0 °F 36.4 °F 37.4 °F 87% 29.96 in 7.0 mi NNE 6.9 mph - N/A Rain Light Rain
11:15 AM 41.0 °F 35.8 °F 37.4 °F 87% 29.94 in 10.0 mi NNE 8.1 mph - N/A Rain , Thunderstorm Light Thunderstorms and Rain
11:35 AM 41.0 °F 37.1 °F 35.6 °F 81% 29.94 in 10.0 mi North 5.8 mph - N/A Rain Light Rain
11:55 AM 41.0 °F 36.4 °F 35.6 °F 81% 29.95 in 10.0 mi NW 6.9 mph - N/A   Light Drizzle
12:15 PM 41.0 °F 38.0 °F 37.4 °F 87% 29.96 in 10.0 mi WNW 4.6 mph - N/A Rain Light Rain
12:35 PM 41.0 °F 39.0 °F 37.4 °F 87% 29.96 in 10.0 mi NW 3.5 mph - N/A   Light Drizzle
12:55 PM 42.8 °F - 37.4 °F 81% 29.98 in 10.0 mi Calm Calm - N/A Rain Light Rain
1:15 PM 42.8 °F - 37.4 °F 81% 29.98 in 10.0 mi Calm Calm - N/A   Overcast
1:35 PM 42.8 °F 41.1 °F 37.4 °F 81% 29.99 in 10.0 mi North 3.5 mph - N/A   Overcast
1:55 PM 42.8 °F 38.6 °F 39.2 °F 87% 29.99 in 10.0 mi North 6.9 mph - N/A Rain Light Rain
2:15 PM 41.0 °F 39.0 °F 39.2 °F 93% 30.00 in 7.0 mi NNW 3.5 mph - N/A   Drizzle
2:35 PM 41.0 °F - 37.4 °F 87% 30.00 in 5.0 mi Calm Calm - N/A Rain Light Rain
2:55 PM 41.0 °F 39.0 °F 39.2 °F 93% 30.00 in 10.0 mi South 3.5 mph - N/A   Drizzle
3:15 PM 42.8 °F 39.3 °F 37.4 °F 81% 30.01 in 10.0 mi South 5.8 mph - N/A Rain Rain
3:35 PM 42.8 °F 37.5 °F 39.2 °F 87% 30.01 in 10.0 mi SSE 9.2 mph - N/A Rain Light Rain
3:55 PM 42.8 °F 38.0 °F 37.4 °F 81% 30.02 in 10.0 mi SSE 8.1 mph - N/A Rain Rain
4:15 PM 42.8 °F 39.3 °F 37.4 °F 81% 30.03 in 7.0 mi South 5.8 mph - N/A Rain Light Rain
4:35 PM 42.8 °F 40.1 °F 37.4 °F 81% 30.04 in 10.0 mi SSE 4.6 mph - N/A Rain Light Rain
4:55 PM 42.8 °F 40.1 °F 37.4 °F 81% 30.04 in 10.0 mi SSE 4.6 mph - N/A   Overcast
5:15 PM 44.6 °F - 37.4 °F 76% 30.04 in 10.0 mi Calm Calm - N/A   Overcast
5:35 PM 44.6 °F 43.1 °F 37.4 °F 76% 30.05 in 10.0 mi SSE 3.5 mph - N/A   Light Drizzle
5:55 PM 44.6 °F - 35.6 °F 71% 30.05 in 10.0 mi Calm Calm - N/A   Drizzle
6:35 PM 44.6 °F 41.4 °F 37.4 °F 76% 30.05 in 10.0 mi South 5.8 mph - N/A Rain Light Rain
6:55 PM 42.8 °F 39.3 °F 37.4 °F 81% 30.05 in 10.0 mi South 5.8 mph - N/A   Light Drizzle
7:15 PM 42.8 °F 41.1 °F 37.4 °F 81% 30.05 in 10.0 mi South 3.5 mph - N/A   Overcast
7:35 PM 42.8 °F 41.1 °F 37.4 °F 81% 30.06 in 10.0 mi South 3.5 mph - N/A   Overcast
7:55 PM 42.8 °F 38.6 °F 37.4 °F 81% 30.07 in 10.0 mi SW 6.9 mph - N/A   Drizzle
8:15 PM 42.8 °F 38.6 °F 37.4 °F 81% 30.08 in 10.0 mi SSE 6.9 mph - N/A   Overcast
8:35 PM 42.8 °F 39.3 °F 37.4 °F 81% 30.08 in 10.0 mi South 5.8 mph - N/A Rain Light Rain
8:55 PM 42.8 °F - 37.4 °F 81% 30.09 in 10.0 mi Calm Calm - N/A   Overcast
9:15 PM 42.8 °F - 39.2 °F 87% 30.09 in 10.0 mi Calm Calm - N/A   Overcast
9:35 PM 42.8 °F - 39.2 °F 87% 30.09 in 10.0 mi Calm Calm - N/A   Overcast
9:55 PM 42.8 °F 39.3 °F 37.4 °F 81% 30.10 in 10.0 mi SSW 5.8 mph - N/A   Overcast
10:15 PM 41.0 °F 37.1 °F 37.4 °F 87% 30.10 in 10.0 mi SSW 5.8 mph - N/A   Overcast
10:35 PM 42.8 °F 37.5 °F 35.6 °F 76% 30.10 in 10.0 mi SSE 9.2 mph - N/A   Overcast
10:55 PM 42.8 °F 39.3 °F 35.6 °F 76% 30.10 in 10.0 mi South 5.8 mph - N/A   Overcast
11:15 PM 41.0 °F 36.4 °F 35.6 °F 81% 30.11 in 10.0 mi South 6.9 mph - N/A Rain Light Rain
11:35 PM 41.0 °F 37.1 °F 35.6 °F 81% 30.11 in 10.0 mi SSE 5.8 mph - N/A Rain Light Rain
11:55 PM 41.0 °F 38.0 °F 37.4 °F 87% 30.11 in 10.0 mi SSE 4.6 mph - N/A Rain Rain